This is the latest recevied weather packets stored in our database for station/object KI2K. If no packets are shown the sender has not sent any weather packets the latest 10 day(s).
| Time | Temp. | Humidity | Pressure | Rain* | Wind** | Luminosity | Snow |
|---|---|---|---|---|---|---|---|
| 1777605878 | 11.67° C | 72% | 1013.6 hPa | 0 mm | - | 0 W/m² | - |
| 1777605573 | 11.67° C | 71% | 1013.7 hPa | 0 mm | - | 0 W/m² | - |
| 1777605268 | 11.67° C | 73% | 1013.8 hPa | 0 mm | - | 0 W/m² | - |
| 1777604965 | 11.67° C | 73% | 1013.6 hPa | 0 mm | - | 0 W/m² | - |
| 1777604660 | 11.67° C | 71% | 1013.8 hPa | 0 mm | - | 0 W/m² | - |
| 1777604357 | 11.67° C | 72% | 1013.8 hPa | 0 mm | - | 0 W/m² | - |
| 1777604051 | 11.67° C | 73% | 1013.8 hPa | 0 mm | - | 0 W/m² | - |
| 1777603749 | 11.67° C | 75% | 1013.8 hPa | 0 mm | - | 0 W/m² | - |
| 1777603444 | 11.67° C | 73% | 1013.9 hPa | 0 mm | - | 0 W/m² | - |
| 1777603141 | 11.67° C | 75% | 1014.3 hPa | 0 mm | - | 0 W/m² | - |
| 1777602836 | 11.67° C | 71% | 1014 hPa | 0 mm | - | 0 W/m² | - |
| 1777602531 | 11.67° C | 70% | 1014.3 hPa | 0 mm | - | 0 W/m² | - |
| 1777602227 | 12.22° C | 71% | 1013.9 hPa | 0 mm | - | 0 W/m² | - |
| 1777601923 | 12.22° C | 70% | 1014.1 hPa | 0 mm | - | 0 W/m² | - |
| 1777601623 | 12.22° C | 70% | 1013.9 hPa | 0 mm | - | 0 W/m² | - |
| 1777601313 | 12.22° C | 69% | 1013.8 hPa | 0 mm | - | 0 W/m² | - |
| 1777601011 | 12.22° C | 70% | 1014 hPa | 0 mm | - | 0 W/m² | - |
| 1777600707 | 12.22° C | 69% | 1013.8 hPa | 0 mm | - | 0 W/m² | - |
| 1777600403 | 12.22° C | 69% | 1013.7 hPa | 0 mm | - | 0 W/m² | - |
| 1777600099 | 12.22° C | 69% | 1013.9 hPa | 0 mm | - | 0 W/m² | - |
| 1777599795 | 12.22° C | 71% | 1014.1 hPa | 0 mm | - | 0 W/m² | - |
| 1777599490 | 12.22° C | 68% | 1013.8 hPa | 0 mm | - | 0 W/m² | - |
| 1777599188 | 12.22° C | 67% | 1013.7 hPa | 0 mm | - | 0 W/m² | - |
| 1777598884 | 12.22° C | 66% | 1014 hPa | 0 mm | - | 0 W/m² | - |
| 1777598581 | 12.78° C | 68% | 1013.8 hPa | 0 mm | - | 0 W/m² | - |
* Rain latest hour (hover to see other rain measurements)
** Current wind speed in m/s (hover to see current wind gust speed)